Location: Bord�res
(43.2000°N, 0.2167°W)
Time: 14:42:46
(UTC+00:00)

IRS-1A Rocket - Pass Details

Date: 03 March 2021
Orbit: 851 x 931 km, 99.2° (Epoch: 14 April)

Event Time Altitude Azimuth Distance (km) Brightness Sun altitude
Exits shadow 19:46:41 34° 142° (SE) 1,409 4.9 -21.5°
Maximum altitude 19:49:08 66° 72° (ENE) 955 4.2 -21.9°
Drops below altitude 10° 19:54:39 10° 351° (N) 2,513 6.9 -22.9°
Sets 19:57:02 0° 349° (N) 3,446 7.7 -23.3°
